Location: Unspecified
(0.0000°N, 0.0000°E)
Time: 04:47:37
(UTC+00:00)

Vanguard 1 Rocket - All Passes

Search period start: 28 July 2017 00:00
Search period end: 07 August 2017 00:00
Orbit: 653 x 4225 km, 34.3° (Epoch: 26 July)

Date Brightness Start Highest point End Pass type
(mag) Time Alt. Az. Time Alt. Az. Time Alt. Az.
28 Jul - 00:52:22 10° SW 01:14:24 85° NW 01:25:29 10° NE visible
28 Jul - 03:31:39 10° W 03:41:14 21° NW 03:47:30 10° N visible
28 Jul - 11:03:45 10° N 11:08:20 23° NE 11:15:07 10° E daylight
28 Jul - 13:26:18 10° WNW 13:33:53 66° SSW 13:49:13 10° SE daylight
28 Jul - 15:54:30 10° WSW 16:05:13 27° SSW 16:22:12 10° SE daylight
28 Jul - 18:29:19 10° SW 18:44:17 21° S 19:01:46 10° SE visible
28 Jul - 21:03:27 10° SW 21:25:43 33° SSE 21:43:25 10° E visible
28 Jul - 23:36:19 10° SW 00:00:50 70° SE 00:14:21 10° ENE visible
29 Jul - 02:12:52 10° WSW 02:29:35 42° NW 02:38:39 10° NNE visible
29 Jul - 12:15:57 10° NW 12:22:11 75° NE 12:34:21 10° ESE daylight
29 Jul - 14:41:45 10° W 14:50:42 35° SSW 15:06:34 10° SE daylight
29 Jul - 17:14:05 10° SW 17:26:15 20° S 17:42:32 10° SE daylight
29 Jul - 19:48:39 10° SSW 20:08:00 26° SSE 20:26:36 10° ESE visible
29 Jul - 22:20:57 10° SW 22:45:57 52° SSE 23:02:05 10° ENE visible
30 Jul - 00:55:21 10° WSW 01:17:21 69° NW 01:28:41 10° NE visible
30 Jul - 03:37:24 10° WNW 03:44:24 16° NW 03:49:35 10° N visible
30 Jul - 11:06:24 10° NNW 11:11:21 34° NE 11:19:24 10° ESE daylight
30 Jul - 13:30:07 10° WNW 13:37:30 48° SSW 13:51:43 10° SE daylight
30 Jul - 15:59:40 10° WSW 16:09:45 22° SSW 16:24:47 10° SSE daylight
30 Jul - 18:34:01 10° SW 18:49:35 21° S 19:07:20 10° SE visible
30 Jul - 21:06:12 10° SW 21:29:50 39° SSE 21:48:13 10° E visible
30 Jul - 23:38:54 10° SW 00:04:00 84° SE 00:17:51 10° NE visible
31 Jul - 02:17:05 10° W 02:32:29 33° NW 02:41:24 10° NNE visible
31 Jul - 09:58:32 10° NNE 10:00:43 12° NE 10:03:15 10° ENE daylight
31 Jul - 12:19:21 10° WNW 12:25:29 77° SW 12:37:21 10° SE daylight
31 Jul - 14:46:25 10° WSW 14:54:52 27° SSW 15:08:46 10° SSE daylight
31 Jul - 17:19:28 10° SW 17:31:26 19° S 17:46:53 10° SE daylight
31 Jul - 19:51:58 10° SSW 20:12:38 30° SSE 20:32:08 10° ESE visible
31 Jul - 22:23:26 10° SW 22:49:23 63° SE 23:05:57 10° ENE visible
01 Aug - 00:58:41 10° WSW 01:20:11 56° NW 01:31:43 10° NE visible
01 Aug - 03:44:49 10° NW 03:47:51 11° NW 03:50:30 10° NNW visible
01 Aug - 11:09:21 10° NW 11:14:27 53° NE 11:23:10 10° ESE daylight
01 Aug - 13:34:16 10° W 13:41:22 35° SSW 13:54:02 10° SE daylight
01 Aug - 16:05:10 10° SW 16:14:33 19° S 16:27:43 10° SSE daylight
01 Aug - 18:38:07 10° SSW 18:54:41 23° SSE 19:13:15 10° ESE visible
01 Aug - 21:08:50 10° SW 21:33:36 47° SSE 21:52:38 10° E visible
01 Aug - 23:41:42 10° SW 00:06:58 82° NW 00:21:08 10° NE visible
02 Aug - 02:21:56 10° W 02:35:30 25° NW 02:44:01 10° N visible
02 Aug - 10:00:18 10° N 10:03:55 20° NE 10:08:37 10° E daylight
02 Aug - 12:23:02 10° WNW 12:29:00 53° SSW 12:40:05 10° SE daylight
02 Aug - 14:51:31 10° WSW 14:59:16 21° SSW 15:10:59 10° SSE daylight
02 Aug - 17:24:27 10° SSW 17:36:40 19° S 17:52:07 10° SE daylight
02 Aug - 19:54:57 10° SSW 20:16:52 35° SSE 20:37:18 10° E visible
02 Aug - 22:26:00 10° SW 22:52:33 75° SE 23:09:33 10° ENE visible
03 Aug - 01:02:25 10° WSW 01:22:59 45° NW 01:34:38 10° NNE visible
03 Aug - 11:12:35 10° NW 11:17:40 83° NE 11:26:31 10° SE daylight
03 Aug - 13:38:49 10° WSW 13:45:25 25° SSW 13:56:11 10° SSE daylight
03 Aug - 16:10:46 10° SSW 16:19:32 16° S 16:31:15 10° SE daylight
03 Aug - 18:41:40 10° SSW 18:59:26 26° SSE 19:19:10 10° ESE visible
03 Aug - 21:11:24 10° SW 21:37:03 56° SE 21:56:42 10° ENE visible
03 Aug - 23:44:45 10° WSW 00:09:46 68° NW 00:24:15 10° NE visible
04 Aug - 02:27:30 10° W 02:38:45 20° NW 02:46:26 10° N visible
04 Aug - 10:02:52 10° NNW 10:07:03 33° NE 10:12:55 10° ESE daylight
04 Aug - 12:27:04 10° W 12:32:45 36° SSW 12:42:33 10° SE daylight
04 Aug - 14:57:06 10° SW 15:03:53 16° S 15:13:14 10° SSE daylight
04 Aug - 17:28:48 10° SSW 17:41:47 20° SSE 17:58:03 10° SE daylight
04 Aug - 19:57:44 10° SW 20:20:42 42° SSE 20:42:01 10° E visible
04 Aug - 22:28:42 10° SW 22:55:31 88° SE 23:12:55 10° NE visible
05 Aug - 01:06:40 10° W 01:25:53 36° NW 01:37:24 10° NNE visible
05 Aug - 08:54:49 10° NNE 08:56:22 11° NE 08:58:00 10° ENE daylight
05 Aug - 11:16:07 10° WNW 11:21:06 62° SSW 11:29:32 10° SE daylight
05 Aug - 13:43:53 10° SW 13:49:41 19° SSW 13:58:08 10° SSE daylight
05 Aug - 16:16:05 10° SSW 16:24:38 15° S 16:35:43 10° SE daylight
05 Aug - 18:44:49 10° SSW 19:03:47 31° SSE 19:24:46 10° E visible
05 Aug - 21:14:01 10° SW 21:40:13 67° SE 22:00:26 10° ENE visible
05 Aug - 23:48:09 10° WSW 00:12:33 56° NW 00:27:13 10° NE visible
06 Aug - 02:33:57 10° WNW 02:42:18 15° NW 02:48:34 10° N visible
06 Aug - 10:05:52 10° NW 10:10:17 57° NE 10:16:41 10° ESE daylight
06 Aug - 12:31:30 10° WSW 12:36:42 24° SSW 12:44:46 10° SSE daylight
06 Aug - 15:03:09 10° SSW 15:08:40 13° S 15:15:42 10° SSE daylight
06 Aug - 17:32:31 10° SSW 17:46:38 22° SSE 18:04:17 10° ESE daylight
06 Aug - 20:00:25 10° SW 20:24:10 50° SE 20:46:20 10° ENE visible
06 Aug - 22:31:37 10° SW 22:58:19 79° NW 23:16:06 10° NE visible
